Regional Weather Roundup
Issued by NWS

Home | Current Version | Previous Version | Graphics & Text | Print | Product List | Glossary Off
Versions: 1 2 3 4 5 6 7 8 9 10 11 12 13 14 15 16 17 18 19 20 21 22 23 24 25 26 27 28 29 30 31 32 33 34 35 36 37 38 39 40 41 42 43 44 45 46 47 48 49 50

264
ASUS43 KMKX 262021
RWRWI

WISCONSIN REGIONAL WEATHER ROUNDUP
NATIONAL WEATHER SERVICE MILWAUKEE/SULLIVAN WI
300 PM CDT SUN MAR 26 2017

NOTE: "FAIR" INDICATES FEW OR NO CLOUDS BELOW 12,000 FEET WITH NO
SIGNIFICANT WEATHER AND/OR OBSTRUCTIONS TO VISIBILITY.

WIZ001-002-006>008-014>016-023>028-262100-
NORTHWEST WISCONSIN

CITY           SKY/WX    TMP DP  RH WIND       PRES   REMARKS
SUPERIOR ARPT  CLOUDY    35  33  94 NE8       29.96S WCI  28
ASHLAND        CLOUDY    36  34  92 NE9       29.93F WCI  29
HAYWARD        CLOUDY    42  35  76 N12       29.89S
SIREN          CLOUDY    41  36  83 CALM      29.90S
CUMBERLAND     CLOUDY    41  36  81 NE7       29.88S
RICE LAKE      CLOUDY    42  37  83 CALM      29.89F
CHETEK         CLOUDY    41  37  86 CALM      29.88S
LADYSMITH      CLOUDY    42  38  85 NE3       29.88F
EAU CLAIRE     CLOUDY    41  37  86 N6        29.87S
MENOMONIE      CLOUDY    42  38  87 N5        29.88S
NEW RICHMOND   CLOUDY    41  38  87 NW5       29.89F
OSCEOLA        CLOUDY    41  41 100 NW3       29.93S
$$

WIZ003>005-009-010-017-018-262100-
NORTH CENTRAL WISCONSIN

CITY           SKY/WX    TMP DP  RH WIND       PRES   REMARKS
MANITOWISH WTR CLOUDY    38  38 100 NE3       29.85F
ARBOR VITAE    CLOUDY    39  37  93 NE5       29.84F
WOODRUFF       CLOUDY    39  37  93 NE5       29.84F
RHINELANDER    CLOUDY    38  38 100 NE3       29.85F FOG
EAGLE RIVER    CLOUDY    37  37  97 CALM      29.84F
LAND O LAKES   CLOUDY    40  37  91 CALM      29.87F
PHILLIPS       CLOUDY    38  38  99 N6        29.85F WCI  34
TOMAHAWK       CLOUDY    38  36  92 CALM      29.85F
MEDFORD        DRIZZLE   38  37  94 CALM      29.85S
MERRILL        CLOUDY    39  38  97 NE3       29.86S
$$

WIZ029-030-035-036-043>047-262100-
CENTRAL WISCONSIN

CITY           SKY/WX    TMP DP  RH WIND       PRES   REMARKS
WAUSAU         CLOUDY    39  37  92 NE5       29.83F
MOSINEE        CLOUDY    37  37 100 NE5       29.86F WCI  34
MARSHFIELD     CLOUDY    39  36  89 E5        29.84F FOG
STEVENS POINT  CLOUDY    36  36 100 NE5       29.86F FOG     WCI  32
WAUPACA        DRIZZLE   40  39  95 N5        29.86F
WAUTOMA        RAIN      39  38  96 N6        29.86F WCI  35
WISC RAPIDS    CLOUDY    39  39 100 NE3       29.87S FOG
CAMP DOUGLAS   DRIZZLE   39  39 100 NE3       29.85F FOG
$$

WIZ011>013-019>022-031-037>040-048>050-262100-
NORTHEAST WISCONSIN

CITY           SKY/WX    TMP DP  RH WIND       PRES   REMARKS
ANTIGO         CLOUDY    37  37  98 NE3       29.84F
SHAWANO        DRIZZLE   39  37  92 NE3       29.88S
OCONTO         CLOUDY    37  36  97 NE5       29.87F WCI  33
STURGEON BAY   LGT RAIN  38  38 100 E3        29.88F FOG
GREEN BAY      LGT RAIN  38  38 100 NE12      29.87S WCI  30
MANITOWOC      LGT RAIN  41  39  93 NE5       29.86F
APPLETON       DRIZZLE   37  37 100 NE9       29.84F WCI  31
CLINTONVILLE   RAIN      37  36  93 NE6       29.87R WCI  33
OSHKOSH        LGT RAIN  40  38  93 NE9       29.84F FOG     WCI  34
$$

WIZ032>034-041-042-053>061-262100-
SOUTHWEST WISCONSIN

CITY           SKY/WX    TMP DP  RH WIND       PRES   REMARKS
LA CROSSE      CLOUDY    43  39  86 N6        29.86F FOG
SPARTA         CLOUDY    40  39  95 N3        29.86F
VIROQUA        CLOUDY    40  40 100 NE6       29.83F
BOSCOBEL       CLOUDY    46  42  86 VRB5      29.84F
PRAIRIE DU CHI CLOUDY    43  42  97 NW7       29.84S
PLATTEVILLE    CLOUDY    47  47 100 CALM      29.82S
$$

WIZ056-057-062-063-064-067-068-262100-
SOUTH CENTRAL WISCONSIN

CITY           SKY/WX    TMP DP  RH WIND       PRES   REMARKS
REEDSBURG      CLOUDY    40  40 100 N5        29.84F
BARABOO/DELLS  DRIZZLE   40  39  97 NE5       29.84F
LONE ROCK      CLOUDY    44  41  89 NE6       29.84F FOG
MINERAL POINT  FOG       46  46 100 N5        29.82S VSB 3/4
MADISON        LGT RAIN  45  43  93 N5        29.82F
MIDDLETON      CLOUDY    46  46 100 NE5       29.83S
WATERTOWN      DRIZZLE   46  46 100 CALM      29.82S
MONROE         CLOUDY    50  50 100 CALM      29.81S FOG
JANESVILLE     CLOUDY    52  52 100 N6        29.81S
$$

WIZ051-052-058>065-066-070>072-262100-
SOUTHEAST WISCONSIN

CITY           SKY/WX    TMP DP  RH WIND       PRES   REMARKS
MILWAUKEE      CLOUDY    46  43  89 N3        29.82F FOG
WAUKESHA       LGT RAIN  43  43 100 E7        29.83F FOG
MILWAUKEE/TIMM LGT RAIN  41  39  93 NE5       29.84S
RACINE         CLOUDY    46  44  93 NE6       29.84S FOG
KENOSHA        CLOUDY    50  48  93 CALM      29.82S FOG
FOND DU LAC    LGT RAIN  42  39  89 NE8       29.83F FOG
SHEBOYGAN      LGT RAIN  40  39  97 NE9       29.84F FOG     WCI  34
WEST BEND      LGT RAIN  41  41 100 E3        29.83S
JUNEAU         DRIZZLE   44  43  97 N3        29.84S
$$

LSZ147-162-262100-
LAKE SUPERIOR

STATION/POSITION TIME  TEMP    WIND        PRES    WAVE
                       AIR SEA DIR/SP/G            HT/PER
                 (UTC) (F)     (DEG/KT/KT) (MB)    (FT/S)
DEVILS ISLAND    2000   33      40/ 13/ 13 1014.9F
PORT WING        1940   34      40/ 13/ 14 1014.2S
SAXON HARBOR     1940   34     330/  3/  4 1013.5F
$$

LMZ867-665-643>646-262100-
LAKE MICHIGAN

STATION/POSITION TIME  TEMP    WIND        PRES    WAVE
                       AIR SEA DIR/SP/G            HT/PER
                 (UTC) (F)     (DEG/KT/KT) (MB)    (FT/S)
CHAMBERS ISLAND  1940   33     360/ 10/ 11 1011.5F
NORTHPORT PIER   2000   35      50/ 10/ 14 1011.9
KEWAUNEE LAKESHO 2000   37      30/  5/  9 1010.8
SHEBOYGAN LAKESH 2000   36      10/  7/  8 1011.0F
PORT WASHINGTON  1940   40      40/  8/  9 1011.5S
MILWAUKEE LAKESH 2000   40      10/  5/  6   N/A
KENOSHA   LAKESH 2000   40      30/  2/  3 1010.2
$$

TC  - TEMPERATURE IN CELSIUS
VSB - VISIBILITY IN STATUTE MILES
WCI - WIND CHILL INDEX
HX  - HEAT INDEX





USA.gov is the U.S. government's official web portal to all federal, state and local government web resources and services.